Starlink 4553

operational
NORAD ID: 53577 Int'l Des: 2022-101 Owner: SPXS Country: US Constellation: starlink
LEOCIRCULAR

关于 Starlink 4553

正在加载描述...

实时位置

正在加载3D地球...

即将过境

高度历史

Altitude vs Time

uPlot chart will show altitude changes over time

两行轨道根数

1 53577U 22101BC 25353.57198601 .00000540 00000-0 51984-4 0 9998
2 53577 53.2183 53.5358 0001287 73.7838 286.3296 15.08843798185175
Epoch: Dec 19, 2025 • Age: 17 hours

当前状态

高度 543.6 km
速度 7.59 km/s
星下点 -14.10°S, 156.67°W
发射日期 Aug 19, 2022
运行时间 3.3 years
类型 internet

技术详情

分类 Payload
质量 300.00 kg
干质量 290.00 kg
总质量 300.00 kg
长度 0.20 m
直径 2.80 m
跨度 9.00 m
形状 Box + pan
制造商 SPXS
平台类型 Starlink
阶段状态 In Orbit
所有者/国家 SPXS/US

大型星座

Loading constellations...